High Desert Yearling Classic - Second Training Toss

Station: INVENTORY - T Race

Distance: 10 Miles    

Release: 06-Dec-2017 13:00

Weather Release:    Arrival:

Wind at Release: 4NNE     Wind at Arrival: 4NNE

Temp at Release: 26°    Temp at Arrival: 26°

Lofts: 99

Birds: 527

Clocked: 519

3 miles!
Drops Pos Breeder Pigeon Name Color Sex Ent Arrival Speed To Win Eligible
1 Carlton Kroese-Crazy Al - CO 1286-AU17-HOHC BB H 1 13:07:18.00 2410.959 00:00:00 Yes
2 House Of Paine - CA 0271-AU17-GSF MLY H 1 13:12:15.00 1436.735 00:04:57 Yes
3 Jones Boys - UT 1180-AU17-SLI BB H 1 13:12:21.00 1425.101 00:05:03 Yes
4 Spring Break Race - UT 11347-US17-IPB BBWF H 1 13:12:31.00 1406.125 00:05:13 Yes
5 B S Syndicate - IL 0017-AU17-BEKO BCWF H 1 13:12:47.00 1376.793 00:05:29 Yes
6 Mario Rodriguez - AZ 15911-AU17-ARPU BB H 1 13:12:54.00 1364.341 00:05:36 Yes
7 Roberts Family Loft - MA 0186-IF17-NWC BBSP H 1 13:12:56.00 1360.825 00:05:38 Yes
8 House Of Paine - CA 0265-AU17-GSF BBPD H 2 13:12:58.00 1357.326 00:05:40 Yes
9 Hammon And Friends - AZ 0416-AU17-DWI BB H 1 13:13:39.00 1289.377 00:06:21 Yes
10 Marian Taloi - OR 0242-AU17-OTC BB H 1 13:14:56.00 1178.571 00:07:38 Yes
11 Silver Dollar Loft - CO 0098-AU17-SD BB H 1 13:17:04.00 1031.250 00:09:46 Yes
12 Ed Kehl - UT 0942-AU17-WFA DC H 1 13:17:16.00 1019.305 00:09:58 Yes
13 Silver Dollar Loft - CO 0146-AU17-SD BB H 2 13:17:30.00 1005.714 00:10:12 Yes
14 Mc Laughlin Lofts - MA 1248-AU17-MCLO BB H 1 13:18:04.00 974.170 00:10:46 Yes
15 Frank Locante - WI 17022-AU17-FRLO DCSP H 1 13:18:13.00 966.148 00:10:55 Yes
16 Almosta Loft - WA 47996-AU17-AA BB H 1 13:18:28.00 953.069 00:11:10 Yes
17 Doug Donner - CO 13420-AU17-ARPU BC H 1 13:18:29.00 952.209 00:11:11 Yes
18 Woodland Loft - NY 2261-IF17-EMC BB H 1 13:18:30.00 951.351 00:11:12 Yes
19 Frank Locante - WI 17026-AU17-FRLO DC H 2 13:18:31.00 950.495 00:11:13 Yes
20 Almosta Loft - WA 47993-AU17-AA BB H 2 13:18:34.00 947.935 00:11:16 Yes
21 Dave Dudley - CO 17594-AU17-PUE BB H 1 13:18:38.00 944.544 00:11:20 Yes
22 Bert Bruno - UT 36375-AU17-JEDD BLK H 1 13:27:48.00 633.094 00:20:30 Yes
23 Ganus Family Loft - IN 0920-AU17-GFL RC H 1 13:27:56.00 630.072 00:20:38 Yes
24 Slick Hills Loft - UT 46148-AU17-ARPU DC H 1 13:27:57.00 629.696 00:20:39 Yes
25 Joe Zarachowicz - MD 2245-IF17-CCC SLT H 1 13:28:00.00 628.571 00:20:42 Yes
25 Western Loft - CA 8380-AU17-RMCL BB H 1 13:28:00.00 628.571 00:20:42 Yes
27 Sam Haslem - UT 7810-AU17-CDR BC H 1 13:28:03.00 627.451 00:20:45 Yes
28 Sam Haslem - UT 7806-AU17-CDR BB H 2 13:28:12.00 624.113 00:20:54 Yes
29 Marian Taloi - OR 11074-AU17-JEDD BC H 2 13:28:20.00 621.176 00:21:02 Yes
30 Western Loft - CA 2382-AU17-FCLM BB H 2 13:28:44.00 612.529 00:21:26 Yes
31 Hollywood Lou Loft - FL 0078-AU17-HL BB H 1 13:28:46.00 611.819 00:21:28 Yes
32 Woodland Loft - NY 2243-IF17-EMC RC H 2 13:28:48.00 611.111 00:21:30 Yes
33 Huan Qiu Zhang - NC 1747-IF17-JNC BBSP H 1 13:28:49.00 610.758 00:21:31 Yes
34 Dave Dudley - CO 17137-AU17-PUE BLK H 2 13:28:50.00 610.405 00:21:32 Yes
34 Pelican Loft - ID 72741-AU17-ARPU BB H 1 13:28:50.00 610.405 00:21:32 Yes
36 D & L Lofts - BC 1106-CU17-MTNP BB H 1 13:28:51.00 610.052 00:21:33 Yes
37 High Plains Drifter Loft - CO 0026-AU17-HPDL BBWF H 1 13:28:58.00 607.595 00:21:40 Yes
38 Frank Locante - WI 17030-AU17-FRLO BB H 3 13:28:59.00 607.246 00:21:41 Yes
39 Warbird Loft - CO 7346-AU17-FH BB H 1 13:29:05.00 605.158 00:21:47 Yes
40 Utaz Boys/ Jones - UT 0809-AU17-SLI BBWF H 1 13:29:12.00 602.740 00:21:54 Yes
41 Rory Smith - UT 7382-AU17-CDR BB H 1 13:29:13.00 602.396 00:21:55 Yes
42 Rich Fox Loft - PA 0880-IF17-LVC BC H 1 13:29:17.00 601.024 00:21:59 Yes
43 Mc Laughlin Lofts - MA 1230-AU17-MCLO BC H 2 13:29:18.00 600.683 00:22:00 Yes
44 3 Stars & A Sun Loft - TX 0025-AU17-3SS BC H 1 13:29:19.00 600.341 00:22:01 Yes
45 Ganus Family Loft - IN 0921-AU17-GFL RC H 2 13:29:37.00 594.260 00:22:19 Yes
46 Thunder Birds Breeding/Rodriguez Loft - TX 19837-AU17-ARPU Red Mist BC H 1 13:29:53.00 588.957 00:22:35 Yes
47 Venn Family Loft - WY 87132-AU17-ARPU BB H 1 13:30:09.00 583.748 00:22:51 Yes
48 Team Elite - IL 0585-AU17-ELIT DCGZ H 1 13:30:13.00 582.460 00:22:55 Yes
49 Hammon And Friends - AZ 0422-AU17-DWI SLI H 2 13:30:21.00 579.901 00:23:03 Yes
49 Thunder Birds Breeding/Rodriguez Loft - TX 17845-AU17-WIN Deadpool BB H 2 13:30:21.00 579.901 00:23:03 Yes
51 Arnel Vega-Centmeyer - CA 1823-AU17-ARN RC H 1 13:30:24.00 578.947 00:23:06 Yes
52 Powerstroke Loft - UT 0179-IF17-PS BB H 1 13:30:25.00 578.630 00:23:07 Yes
53 Flyhome Loft - CA 26352-AU17-ARPU BB H 1 13:30:54.00 569.579 00:23:36 Yes
54 Adirondack Team - NY 12999-AU17-AA DCWF H 1 13:30:56.00 568.966 00:23:38 Yes
55 Huan Qiu Zhang - NC 1713-IF17-JNC BB H 2 13:30:59.00 568.047 00:23:41 Yes
56 Hammon And Friends - AZ 0415-AU17-DWI BB H 3 13:31:01.00 567.437 00:23:43 Yes
56 Frank Locante - WI 17020-AU17-FRLO BBSP H 4 13:31:01.00 567.437 00:23:43 Yes
58 Ed Kehl - UT 0383-AU17-WFA BB H 2 13:31:12.00 564.103 00:23:54 Yes
58 Venn Family Loft - WY 87142-AU17-ARPU BB H 2 13:31:12.00 564.103 00:23:54 Yes
60 Warbird Loft - CO 7334-AU17-FH BC H 2 13:31:16.00 562.900 00:23:58 Yes
61 Spring Break Race - UT 16720-AU17-AA BB H 2 13:31:20.00 561.702 00:24:02 Yes
62 Marian Taloi - OR 0498-AU17-OTC RC H 3 13:31:24.00 560.510 00:24:06 Yes
63 Fly & Criddle - ID 6656-AU17-FOYS MLY H 1 13:31:28.00 559.322 00:24:10 Yes
64 Kwan Loft - CA 6239-AU17-HP BB H 1 13:31:30.00 558.730 00:24:12 Yes
64 P N W Challenge - ID 7067-AU17-PNWC "724-360" BBWF H 1 13:31:30.00 558.730 00:24:12 Yes
66 Richard Callahan - MO 37941-AU17-AA BC H 1 13:31:31.00 558.435 00:24:13 Yes
67 Warbird Loft - CO 7331-AU17-FH BB H 3 13:32:07.00 548.002 00:24:49 Yes
68 Haack Loft - CA 2792-AU17-JEDD MLY H 1 13:32:11.00 546.867 00:24:53 Yes
69 Best Loft - IL 1621-AU17-CHI BBWF H 1 13:32:15.00 545.736 00:24:57 Yes
70 P N W Challenge - ID 7098-AU17-PNWC B1501-Z449" BB H 2 13:32:49.00 536.313 00:25:31 Yes
71 Slick Hills Loft - UT 46136-AU17-ARPU BCWF H 2 13:33:55.00 518.919 00:26:37 Yes
72 Mario Rodriguez - AZ 15910-AU17-ARPU GRZ H 2 13:34:14.00 514.119 00:26:56 Yes
73 Slick Hills Loft - UT 46144-AU17-ARPU BCSP H 3 13:34:28.00 510.638 00:27:10 Yes
74 Adirondack Team - NY 12996-AU17-AA BCPD H 2 13:34:38.00 508.181 00:27:20 Yes
75 Ed Kehl - UT 0394-AU17-WFA SLT H 3 13:34:59.00 503.097 00:27:41 Yes
75 Sunshine Loft - BC 1229-CU17-MTNP BB H 1 13:34:59.00 503.097 00:27:41 Yes
77 Arendonk West - CA 26821-AU17-AA BB H 1 13:35:08.00 500.949 00:27:50 Yes
78 Slick Hills Loft - UT 46143-AU17-ARPU BCSP H 4 13:35:17.00 498.819 00:27:59 Yes
79 Team Elite - IL 0591-AU17-ELIT BC H 2 13:35:39.00 493.689 00:28:21 Yes
80 Roberts Family Loft - MA 0182-IF17-NWC BC H 2 13:35:51.00 490.934 00:28:33 Yes
81 Marian Taloi - OR 12255-AU17-JEDD BCSP H 4 13:35:53.00 490.478 00:28:35 Yes
82 Haack Loft - CA 2786-AU17-JEDD MLY H 2 13:35:56.00 489.796 00:28:38 Yes
83 Fly & Criddle - ID 6655-AU17-FOYS MLY H 2 13:35:57.00 489.569 00:28:39 Yes
84 Liab Family Loft - MN 0486-AU17-LIAB Kronick BC H 1 13:35:58.00 489.342 00:28:40 Yes
85 Rich Fox Loft - PA 0827-IF17-LVC BC H 2 13:35:59.00 489.115 00:28:41 Yes
86 Racing Pigeon Mall - WA 0732-AU17-RPM BLK H 1 13:36:03.00 488.211 00:28:45 Yes
87 Dream Team - VT 0570-AU17-JCZL BC H 1 13:36:07.00 487.310 00:28:49 Yes
88 Ganus Family Loft - IN 0479-AU17-GFL BC H 3 13:36:11.00 486.412 00:28:53 Yes
89 Ken Easley-Silvercreek - NM 5123-AU17-EAS BC H 1 13:36:12.00 486.188 00:28:54 Yes
90 Best Loft - IL 1666-AU17-CHI BB H 2 13:36:14.00 485.741 00:28:56 Yes
90 Hammon And Friends - AZ 0595-AU17-DWI BB H 4 13:36:14.00 485.741 00:28:56 Yes
92 Silver Dollar Loft - CO 0097-AU17-SILD BB H 3 13:36:19.00 484.626 00:29:01 Yes
93 Slick Hills Loft - UT 46135-AU17-ARPU BC H 5 13:36:25.00 483.295 00:29:07 Yes
94 Doug Donner - CO 13482-AU17-ARPU BB H 2 13:36:29.00 482.412 00:29:11 Yes
95 Team Elite - IL 0584-AU17-ELIT BCWF H 3 13:36:57.00 476.319 00:29:39 Yes
96 Silver Dollar Loft - CO 0084-AU17-SD BBSP H 4 13:37:02.00 475.248 00:29:44 Yes
97 Adirondack Team - NY 66402-AU17-ARPU GRZ H 3 13:40:20.00 436.364 00:33:02 Yes
98 Aimhigh Loft - CA 0021-AU17-FMT AIM-0021 BB H 1 13:41:14.00 426.839 00:33:56 Yes
99 Scott / Morrison - UT 1113-AU17-WING BB H 1 13:41:24.00 425.121 00:34:06 Yes
100 F & D Lofts - AB 17242-AU17-FD BC H 1 13:41:27.00 424.608 00:34:09 Yes

There are 527 bird records

Note: These Race Results are unofficial and subject to change until verified by the Race Committee and declared final.

Click for forecast!